This is the latest recevied weather packets stored in our database for station/object KI5NXU. If no packets are shown the sender has not sent any weather packets the latest 10 day(s).
| Time | Temp. | Humidity | Pressure | Rain* | Wind** | Luminosity | Snow |
|---|---|---|---|---|---|---|---|
| 1777734616 | 17.78° C | 71% | 1021.8 hPa | 0 mm | - | 600 W/m² | - |
| 1777734314 | 17.22° C | 72% | 1021.6 hPa | 0 mm | - | 600 W/m² | - |
| 1777734009 | 17.22° C | 73% | 1021.7 hPa | 0 mm | - | 540 W/m² | - |
| 1777733706 | 17.22° C | 75% | 1021.6 hPa | 0 mm | - | 505 W/m² | - |
| 1777733403 | 16.67° C | 75% | 1021.6 hPa | 0 mm | - | 493 W/m² | - |
| 1777733099 | 17.22° C | 75% | 1021.6 hPa | 0 mm | - | 476 W/m² | - |
| 1777732795 | 16.67° C | 76% | 1021.6 hPa | 0 mm | - | 414 W/m² | - |
| 1777732492 | 16.67° C | 78% | 1021.7 hPa | 0 mm | - | 364 W/m² | - |
| 1777732190 | 16.11° C | 78% | 1021.4 hPa | 0 mm | - | 352 W/m² | - |
| 1777731887 | 15.56° C | 79% | 1021.7 hPa | 0 mm | - | 339 W/m² | - |
| 1777731584 | 15.56° C | 80% | 1021.7 hPa | 0 mm | - | 319 W/m² | - |
| 1777731282 | 15.56° C | 80% | 1021.7 hPa | 0 mm | - | 271 W/m² | - |
| 1777730979 | 15° C | 81% | 1021.5 hPa | 0 mm | - | 261 W/m² | - |
| 1777730677 | 15° C | 82% | 1021.6 hPa | 0 mm | - | 262 W/m² | - |
| 1777730373 | 14.44° C | 81% | 1021.5 hPa | 0 mm | - | 241 W/m² | - |
| 1777730069 | 14.44° C | 82% | 1021.3 hPa | 0 mm | - | 233 W/m² | - |
| 1777729765 | 14.44° C | 82% | 1021.2 hPa | 0 mm | - | 221 W/m² | - |
| 1777729463 | 13.89° C | 83% | 1021.4 hPa | 0 mm | - | 206 W/m² | - |
| 1777729159 | 13.89° C | 83% | 1021.1 hPa | 0 mm | - | 186 W/m² | - |
| 1777728856 | 13.89° C | 84% | 1021.2 hPa | 0 mm | - | 176 W/m² | - |
| 1777728553 | 13.33° C | 85% | 1021.1 hPa | 0 mm | - | 163 W/m² | - |
| 1777728250 | 13.33° C | 86% | 1021.1 hPa | 0 mm | - | 143 W/m² | - |
| 1777727947 | 13.33° C | 84% | 1021 hPa | 0 mm | - | 131 W/m² | - |
| 1777727644 | 13.33° C | 86% | 1021.1 hPa | 0 mm | - | 120 W/m² | - |
| 1777727341 | 13.33° C | 85% | 1020.8 hPa | 0 mm | - | 84 W/m² | - |
* Rain latest hour (hover to see other rain measurements)
** Current wind speed in m/s (hover to see current wind gust speed)